www.pogodaiklimat.ru

Погода и климат >> Архив погоды >> Россия >> Якутия >> Бестяхская Звероферма


ПОГОДА в Бестяхской Звероферме

  • Прогноз погоды в Бестяхской Звероферме
  • Монитор погоды в Бестяхской Звероферме
  • Климат города

АРХИВ ПОГОДЫ в Бестяхской Звероферме

Время (UTC), дата Ветер
(напр.,м/с)
 
Видим.   Явления Облачность Т
(С)
Тd
(С)
f
(%)
Тe
(С)
Тes
(С)
Комфортность P
(гПа)
Po
(гПа)
Тmin
(С)
Tmax
(С)
R
(мм)
R24
(мм)
S
(см)
18 11.12 ЮВ 2 20 км слабый снег {метель} 10/0
[Ac trans Cs]
-31.0 -34.1 74 -39 -39 опасность
обморожения
1023.6 1013.2
21 11.12 ЮВ 2 20 км слабый снег 9/0
[Ac trans Cs]
-31.1 -34.1 75 -39 -39 опасность
обморожения
1023.6 1013.2
00 12.12 ЮВ 2 20 км слабый снег 9/0
[Ac trans Cs]
-31.2 -34.3 74 -39 -39 опасность
обморожения
1024.0 1013.6 -31.5 0.6 30
03 12.12 Ю 2 20 км слабый снег 10/0
[Ac trans Cs]
-31.4 -34.3 75 -39 -39 опасность
обморожения
1024.0 1013.6
06 12.12 Ю 2 20 км слабый снег 10/0
[Ac trans Cs]
-31.4 -34.3 75 -39 -39 опасность
обморожения
1024.3 1013.9
09 12.12 ЮВ 2 20 км слабый снег 9/0
[Ac trans Cs]
-31.1 -34.1 75 -39 -39 опасность
обморожения
1024.3 1013.9
12 12.12 ЮВ 2 20 км слабый снег 10/0
[Ac trans Cs]
-30.6 -33.6 75 -38 -38 опасность
обморожения
1024.0 1013.6 -30.6 0.2
15 12.12 ЮВ 2 20 км слабый снег 10/0
[Ac trans Cs]
-31.0 -34.1 74 -39 -39 опасность
обморожения
1023.8 1013.4
18 12.12 ЮВ 2 20 км слабый снег 10/0
[Ac trans Cs]
-30.7 -33.6 76 -38 -38 опасность
обморожения
1023.6 1013.2
21 12.12 ЮВ 2 20 км слабый снег 10/0
[Ac trans Cs]
-31.0 -34.1 74 -39 -39 опасность
обморожения
1023.7 1013.3
00 13.12 ЮВ 2 20 км слабый снег 10/0
[Ac trans Cs]
-29.6 -32.6 75 -37 -37 опасность
обморожения
1023.6 1013.2 -31.1 0.9 31
03 13.12 ЮВ 1 20 км слабый снег 10/0
[Ac trans Cs]
-30.1 -33.2 74 -34 -34 опасность
обморожения
1022.6 1012.2
06 13.12 ЮВ 1 50 км {снег} 5/0
[Ac trans Ci fib]
-30.8 -33.9 74 -35 -35 опасность
обморожения
1021.3 1010.9
09 13.12 Ю 2 20 км слабый снег 10/0
[Ac trans Cs]
-29.6 -32.6 75 -37 -37 опасность
обморожения
1019.7 1009.3
12 13.12 Ю 3 20 км слабый снег {метель} 10/0
[Ac trans Cs]
-28.6 -31.7 75 -38 -38 опасность
обморожения
1017.5 1007.1 -28.6 0.4
15 13.12 ЮВ 3 20 км слабый снег {метель} 10/0
[Ac trans Cs]
-28.0 -31.2 74 -37 -37 опасность
обморожения
1014.9 1004.6
18 13.12 ЮВ 3 20 км слабый снег {метель} 10/0
[Ac trans Cs]
-27.5 -30.7 74 -37 -37 опасность
обморожения
1013.0 1002.7
21 13.12 ЮВ 3 20 км слабый снег {метель} 9/0
[Ac trans Cs]
-27.3 -30.5 74 -36 -36 опасность
обморожения
1011.0 1000.7
00 14.12 Ю 3 20 км слабый снег {метель} 10/0
[Ac trans Cs]
-26.3 -29.4 75 -35 -35 опасность
обморожения
1009.6 999.5 -28.8 0.7 30
03 14.12 Ю 3 20 км слабый снег {метель} 10/0
[Ac trans Cs]
-25.8 -29.0 74 -35 -35 опасность
обморожения
1008.4 998.3
06 14.12 Ю 4 20 км слабый снег {метель} 10/0
[Ac trans Cs]
-25.3 -28.5 75 -35 -35 опасность
обморожения
1007.7 997.6
09 14.12 Ю 4 20 км слабый снег {метель} 10/0
[Ac trans Cs]
-25.1 -28.3 75 -35 -35 опасность
обморожения
1007.6 997.5
12 14.12 Ю 3 20 км слабый снег {метель} 10/0
[Ac trans Cs]
-25.1 -28.3 75 -34 -34 опасность
обморожения
1007.5 997.4 -24.8 1
15 14.12 Ю 3 20 км слабый снег {метель} 9/0
[Ac trans Cs]
-26.1 -29.3 74 -35 -35 опасность
обморожения
1007.0 996.9
18 14.12 Ю 4 20 км слабый снег {метель} 9/0
[Ac trans Cs]
-26.1 -29.3 74 -36 -36 опасность
обморожения
1006.9 996.8
21 14.12 ЮВ 3 20 км слабый снег {метель} 10/0
[Ac trans Cs]
-26.5 -29.7 74 -35 -35 опасность
обморожения
1006.3 996.2
00 15.12 ЮВ 3 20 км слабый снег {метель} 10/0
[Ac trans Cs]
-26.0 -29.1 75 -35 -35 опасность
обморожения
1006.0 995.9 -26.8 0.6 31
03 15.12 ЮВ 2 20 км слабый снег {метель} 10/0
[Ac trans Cs]
-26.0 -29.1 75 -33 -33 опасность
обморожения
1004.9 994.9
06 15.12 ЮВ 2 50 км слабый снег {метель} 10/0
[Ac trans Cs]
-24.3 -27.5 75 -31 -31 опасность
обморожения
1004.1 994.1
09 15.12 ЮВ 2 20 км слабый снег 10/0
[Ac trans Cs]
-23.9 -27.1 75 -30 -30 1003.2 993.2
12 15.12 ЮВ 2 20 км слабый снег 10/0
[Ac trans Cs]
-22.5 -25.7 75 -29 -29 1002.7 992.7 -22.5 1
15 15.12 Ю 4 20 км слабый снег {метель} 10/0
[Ac trans Cs]
-24.5 -27.7 75 -34 -34 опасность
обморожения
1001.8 991.8
18 15.12 Ю 3 20 км слабый снег {метель} 10/0
[Ac trans Cs]
-22.8 -26.1 74 -31 -31 опасность
обморожения
1001.5 991.5
21 15.12 Ю 3 20 км слабый снег {метель} 10/0
[Ac trans]
-22.6 -25.8 75 -31 -31 опасность
обморожения
1001.3 991.3
00 16.12 Ю 4 20 км слабый снег {метель} 10/0
[Ac trans Cs]
-22.9 -26.2 74 -32 -32 опасность
обморожения
1001.2 991.2 -24.7 1 32
03 16.12 Ю 3 20 км слабый снег {метель} 10/0
[Ac trans Cs]
-22.6 -25.8 75 -31 -31 опасность
обморожения
1000.6 990.6
06 16.12 ЮВ 2 20 км слабый снег {метель} 10/0
[Ac trans Cs]
-22.8 -25.3 80 -29 -29 1000.4 990.4
09 16.12 ЮВ 1 20 км слабый снег 9/0
[Ac trans Cs]
-22.0 -24.6 79 -25 -25 1000.9 990.9
12 16.12 штиль 0 20 км слабый снег 10/0
[Cs]
-23.7 -27.0 74 -24 -24 1001.2 991.2 -21.8 1
15 16.12 Ю 1 20 км слабый снег 9/0
[Ac trans Cs]
-24.7 -27.2 80 -28 -28 1001.1 991.1
18 16.12 Ю 1 20 км слабый снег 9/0
[Ac trans Cs]
-25.8 -28.3 79 -29 -29 1001.7 991.8
21 16.12 ЮЗ 1 20 км слабый снег 10/0
[Ac trans Cs]
-28.3 -31.3 75 -32 -32 опасность
обморожения
1003.5 993.3
00 17.12 Ю 1 20 км слабый снег 10/0
[Cs]
-30.7 -33.6 76 -35 -35 опасность
обморожения
1004.5 994.3 -30.7 0.6 33
03 17.12 Ю 1 20 км слабый снег 10/0
[Ac trans Cs]
-32.6 -35.5 75 -37 -37 опасность
обморожения
1005.6 995.1 -32.6
06 17.12 штиль 0 50 км {снег} 4/0
[Ac trans Ci fib]
-36.3 -39.0 76 -36 -36 опасность
обморожения
1006.0 995.5
09 17.12 Ю 1 20 км слабый снег 10/0
[Cs]
-37.4 -40.1 76 -42 -42 опасность
обморожения
1006.6 995.8
12 17.12 В 1 20 км слабый снег 10/0
[Ac trans Cs]
-34.6 -37.4 76 -39 -39 опасность
обморожения
1005.9 995.4 -30.7 0.4
15 17.12 штиль 0 20 км слабый снег 10/0
[Ac trans Cs]
-38.4 -41.4 73 -38 -38 опасность
обморожения
1006.0 995.2
18 17.12 штиль 0 20 км слабый снег 10/0
[Ac trans Cs]
-38.2 -40.9 76 -38 -38 опасность
обморожения
1005.5 994.9
21 17.12 штиль 0 20 км слабый снег 10/0
[Ac trans Cs]
-38.5 -41.4 74 -39 -39 опасность
обморожения
1006.2 995.4
00 18.12 штиль 0 20 км слабый снег 10/0
[Ac trans Cs]
-37.3 -40.1 75 -37 -37 опасность
обморожения
1006.9 996.1 -39.2 0.4 34
03 18.12 СВ 1 50 км {снег} 10/0
[Ac trans Cs]
-35.4 -38.4 74 -40 -40 опасность
обморожения
1006.7 996.2
06 18.12 СВ 1 50 км {снег} 6/0
[Ac lent Ci fib]
-34.0 -36.8 76 -39 -39 опасность
обморожения
1006.7 996.2
09 18.12 штиль 0 20 км слабый снег 10/0
[Cs]
-39.8 -42.8 73 -40 -40 опасность
обморожения
1008.1 997.3
12 18.12 штиль 0 50 км {снег} 4/0
[Ci fib]
-41.5 -44.4 73 -42 -42 опасность
обморожения
1008.7 997.7 -33.9 0.4

 

Местоположение метеостанции Бестяхская Звероферма (Якутия, Россия): широта 65.30 долгота 124.10 высота над уровнем моря 73 м.

В архиве по умолчанию представлена погода в Бестяхской Звероферме за последнюю неделю. Архивные данные за месяц целиком и за предыдущие месяцы, начиная с января 2011 года, Вы можете получить, выбрав интересующий диапазон дат из раскрывающегося списка и нажав кнопку "Ввод!".


*Определитесь, кто Вы:
робот инопланетянин человек

Внимание! Время в таблицах - всемирное. Для получения местного времени необходимо прибавить поправку, которая в Бестяхской Звероферме равна 9 ч.

Смотрите также архив погоды в соседних городах и на ближайших метеорологических станциях:

Погода в Хатырык-Хомо (Якутия, Россия) (154 км)
Погода в Сого-Хае (Якутия, Россия) (157 км)
Погода в Жиганске (Якутия, Россия) (169 км)
Погода в Вилюйске (Якутия, Россия) (208 км)
Погода в Сангаре (Якутия, Россия) (217 км)
Погода в Себян-Кюеле (Якутия, Россия) (274 км)
Погода в Верхневилюйске (Якутия, Россия) (278 км)
Погода в Эйке (Якутия, Россия) (317 км)
Погода в Батамае (Якутия, Россия) (322 км)
Погода в Сеген-Кюели (Якутия, Россия) (329 км)

Пояснения к столбцам:

Ветер - указаны скорость ветра в м/с - средняя за 10 мин, порывы в срок и между сроками (в фигурных скобках) и направление, откуда дует ветер: С - северный, СВ - северо-восточный, В - восточный, ЮВ - юго-восточный, Ю - южный, ЮЗ - юго-западный, З - западный, СЗ - северо-западный.
Видимость - горизонтальная дальность видимости в метрах или километрах. При видимости от 1 до 10 км при отсутствии осадков обычно наблюдается дымка, при ухудшении видимости до 1 км и менее - туман. В сухую погоду видимость может ухудшаться дымом, пылью или мглою.
Явления - указаны атмосферные явления, наблюдавшиеся в срок или в последний час перед сроком; фигурными скобками обозначены явления, наблюдавшиеся между сроками (за 1-3 часа до срока); квадратными скобками обозначены град или гололедные отложения с указанием их диаметра в мм.
Облачность - указаны через наклонную черту общая и нижняя облачность в баллах и высота нижней границы облаков в метрах; квадратными скобками обозначены формы облаков: Ci - перистые, Cs - перисто-слоистые, Cc - перисто-кучевые, Ac - высококучевые, As - высокослоистые, Sc - слоисто-кучевые, Ns - слоисто-дождевые, Cu - кучевые, Cb - кучево-дождевые. Подробнее классификацию облаков см. в Атласе облаков (PDF).
T - Температура воздуха - температура, измеренная на высоте 2 м над землей.
Td - Температура точки росы - температура, при понижении до которой содержащийся в воздухе водяной пар достигнет насыщения.
f - Относительная влажность воздуха - влажноcть воздуха, измеренная на высоте 2 м над землей.
Te - Эффективная температура - температура, которую ощущает одетый по сезону человек в тени. Характеристика душности погоды. При расчете учитывается влияние влажности воздуха и скорости ветра на теплоощущения человека.
Tes - Эффективная температура на солнце - температура, которую ощущает человек, с поправкой на солнечный нагрев. Характеристика знойности погоды. Зависит от высоты солнца над горизонтом, облачности и скорости ветра. Ночью, в пасмурную погоду, а также при ветре 12 м/с и более поправка равна нулю.
P - Атмосферное давление - приведенное к уровню моря атмосферное давление.
Po - Атмосферное давление - измеренное на уровне метеостанции атмосферное давление.
Tmin - Минимальная температура - минимум температуры воздуха на высоте 2 м над землей.
Tmax - Максимальная температура - максимум температуры воздуха на высоте 2 м над землей.
R - Количество осадков - Количество выпавших осадков за период времени, мм. При наведении курсора мыши на число - период времени, за который выпало указанное количество осадков.
R24 - Количество осадков - Количество выпавших осадков за 24 часа, мм.
S - Снежный покров - Высота снежного покрова, см. При наведении курсора мыши на число - состояние снежного покрова и степень покрытия местности в баллах.